Location: Newark
(13.6797°N, 8.5297°E)
Time: 07:37:19
(UTC+00:00)

A-11 Canister half - Pass Details

Date: 27 January 2020
Orbit: 1517 x 1683 km, 47.2° (Epoch: 17 February)

Event Time Altitude Azimuth Distance (km) Brightness Sun altitude
Rises 21:25:42 0° 247° (WSW) 4,829 12.1 -57.8°
Reaches altitude 10° 21:29:15 10° 255° (WSW) 3,818 11.4 -58.6°
Enters shadow 21:31:40 18° 265° (W) 3,198 10.9 -59.2°
Maximum altitude 21:37:46 35° 318° (NW) 2,341 - -60.6°
Drops below altitude 10° 21:46:06 10° 21° (NNE) 3,709 - -62.6°
Sets 21:49:31 0° 30° (NNE) 4,676 - -63.4°
